Tracking 18852 objects as of 24-Nov-2017
HD Live streaming from Space Station
objects crossing your sky now

FENGYUN 1C DEB

Track FENGYUN 1C DEB now!
10-day predictions


NORAD ID: 30728
Int'l Code: 1999-025ASN
Perigee: 752.5 km
Apogee: 895.3 km
Inclination: 98.8 °
Period: 101.2 minutes
Semi major axis: 7194 km
RCS: 0.0095 m2 (small)
Launch date: May 10, 1999
Source: People's Republic of China (PRC)
Launch site: Taiyaun Space Center, China (TSC)

Note: This is SATELLITE DEBRIS
aabbcc
Your satellite tracking list
Your tracking list is empty




NASA's NSSDC Master Catalog

Two Line Element Set (TLE):
1 30728U 99025ASN 17328.29804490 -.00000012  00000-0  13959-4 0  9997
2 30728  98.7690 351.9964 0099246 334.1101  84.7683 14.22539851558904
Source of the keplerian elements: AFSPC